Regional Weather Roundup
Issued by NWS

Home | Current Version | Previous Version | Graphics & Text | Print | Product List | Glossary On
Versions: 1 2 3 4 5 6 7 8 9 10 11 12 13 14 15 16 17 18 19 20 21 22 23 24 25 26 27 28 29 30 31 32 33 34 35 36 37 38 39 40 41 42 43 44 45 46 47 48 49 50
000
ASUS43 KLMK 010510
RWRKY
KENTUCKY REGIONAL WEATHER ROUNDUP
NATIONAL WEATHER SERVICE LOUISVILLE KY
100 AM EDT TUE SEP 01 2015

NOTE "FAIR" INDICATES FEW OR NO CLOUDS BELOW 12,000 FEET
WITH NO SIGNIFICANT WEATHER AND/OR OBSTRUCTIONS TO VISIBILITY.

KYZ001>023-026-027-061>063-070>075-010600-
WESTERN AND SOUTH CENTRAL KENTUCKY

CITY           SKY/WX    TMP DP  RH WIND       PRES   REMARKS
PADUCAH        CLEAR     73  66  78 S5        30.08S
HENDERSON      CLEAR     68  64  88 CALM      30.08S
OWENSBORO      CLEAR     72  68  87 CALM      30.10S
HOPKINSVILLE   CLEAR     72  67  83 CALM      30.09F
BOWLING GREEN  CLEAR     70  65  84 CALM      30.11S
GLASGOW        CLEAR     66  66 100 CALM      30.12S FOG
$$

KYZ024-025-028>034-038-045-046-053-010600-
NORTH CENTRAL KENTUCKY

CITY           SKY/WX    TMP DP  RH WIND       PRES   REMARKS
LOUISVILLE/SDF CLEAR     76  66  71 CALM      30.10S
LOUISVILLE/LOU CLEAR     73  65  75 CALM      30.12R
FORT KNOX      CLEAR     67  64  91 CALM      30.10S
$$

KYZ035>037-039>044-047>052-055>060-089>105-010600-
NORTHEAST KENTUCKY

CITY           SKY/WX    TMP DP  RH WIND       PRES   REMARKS
LEXINGTON      CLEAR     70  65  84 CALM      30.14R
COVINGTON      PTCLDY    71  66  84 CALM      30.12R
FRANKFORT      CLEAR     68  64  87 CALM      30.12S
$$

KYZ054-064>069-076>088-106>120-010600-
SOUTHEAST KENTUCKY

CITY           SKY/WX    TMP DP  RH WIND       PRES   REMARKS
JACKSON        PTCLDY    72  63  73 CALM      30.15S
LONDON         CLEAR     68  63  84 CALM      30.15R
SOMERSET       CLEAR     64  64 100 CALM      30.15R
MIDDLESBORO    CLEAR     66  65  97 CALM      30.16S
MONTICELLO     CLEAR     64  64 100 CALM      30.17R FOG
$$



USA.gov is the U.S. government's official web portal to all federal, state and local government web resources and services.